| time (UTC) | temp F | wind direction | speed knots | gust knots | rain 1hr in | rain 24hr in | rain mn in | humidity % | barometer mb |
| 20260506020055 | 63 | 269 | 6.1 | 16.5 | 0.00 | 0.04 | 0.04 | 32 | 1013.7 |
| 20260506015600 | 64 | 256 | 4.3 | 10.4 | 0.00 | 0.04 | 0.04 | 32 | 1013.6 |
| 20260506015055 | 64 | 0 | 0.9 | 8.7 | 0.00 | 0.04 | 0.04 | 32 | 1013.6 |
| 20260506014557 | 65 | 280 | 0.0 | 9.6 | 0.00 | 0.04 | 0.04 | 31 | 1013.5 |
| 20260506014056 | 66 | 255 | 1.7 | 9.6 | 0.00 | 0.04 | 0.04 | 31 | 1013.4 |
| 20260506013553 | 66 | 243 | 1.7 | 10.4 | 0.00 | 0.04 | 0.04 | 30 | 1013.5 |
| 20260506013101 | 67 | 0 | 5.2 | 12.2 | 0.00 | 0.04 | 0.04 | 27 | 1013.3 |
| 20260506012555 | 67 | 250 | 5.2 | 14.8 | 0.00 | 0.04 | 0.04 | 27 | 1013.3 |
| 20260506012057 | 67 | 250 | 5.2 | 14.8 | 0.00 | 0.04 | 0.04 | 27 | 1013.3 |
| 20260506011620 | 67 | 259 | 6.1 | 13.0 | 0.00 | 0.04 | 0.04 | 27 | 1013.2 |
| 20260506011054 | 68 | 243 | 6.1 | 12.2 | 0.00 | 0.04 | 0.04 | 26 | 1013.2 |
| 20260506010554 | 68 | 219 | 5.2 | 11.3 | 0.00 | 0.04 | 0.04 | 26 | 1013.1 |
| 20260506010115 | 69 | 260 | 5.2 | 11.3 | 0.00 | 0.04 | 0.04 | 26 | 1013.0 |
| 20260506005557 | 69 | 224 | 5.2 | 11.3 | 0.00 | 0.04 | 0.04 | 25 | 1013.0 |
| 20260506005059 | 69 | 224 | 5.2 | 11.3 | 0.00 | 0.04 | 0.04 | 26 | 1012.9 |
| 20260506004555 | 70 | 246 | 6.1 | 12.2 | 0.00 | 0.04 | 0.04 | 26 | 1012.9 |
| 20260506004056 | 70 | 231 | 4.3 | 14.8 | 0.00 | 0.04 | 0.04 | 27 | 1012.8 |
| 20260506003555 | 70 | 257 | 5.2 | 14.8 | 0.00 | 0.04 | 0.04 | 27 | 1012.8 |
| 20260506003057 | 69 | 272 | 5.2 | 14.8 | 0.00 | 0.04 | 0.04 | 26 | 1012.8 |
| 20260506002553 | 69 | 264 | 6.1 | 18.2 | 0.00 | 0.04 | 0.04 | 26 | 1012.7 |
| 20260506002054 | 69 | 256 | 7.0 | 18.2 | 0.00 | 0.04 | 0.04 | 26 | 1012.7 |
| 20260506001558 | 71 | 254 | 5.2 | 13.0 | 0.00 | 0.04 | 0.04 | 26 | 1012.7 |
| 20260506001055 | 71 | 252 | 6.1 | 12.2 | 0.00 | 0.04 | 0.04 | 25 | 1012.7 |
| 20260506000558 | 71 | 226 | 5.2 | 12.2 | 0.00 | 0.04 | 0.04 | 26 | 1012.7 |
| 20260506000058 | 71 | 271 | 6.1 | 12.2 | 0.00 | 0.04 | 0.04 | 27 | 1012.7 |
| 20260505235556 | 72 | 255 | 5.2 | 11.3 | 0.00 | 0.04 | 0.04 | 26 | 1012.7 |
| 20260505235055 | 72 | 252 | 3.5 | 10.4 | 0.00 | 0.04 | 0.04 | 26 | 1012.5 |
| 20260505234554 | 73 | 252 | 6.1 | 13.0 | 0.00 | 0.04 | 0.04 | 25 | 1012.6 |
| 20260505234053 | 73 | 255 | 5.2 | 13.0 | 0.00 | 0.04 | 0.04 | 25 | 1012.6 |
| 20260505233555 | 73 | 251 | 5.2 | 11.3 | 0.00 | 0.04 | 0.04 | 25 | 1012.6 |
| 20260505233053 | 74 | 0 | 3.5 | 18.2 | 0.00 | 0.04 | 0.04 | 25 | 1012.7 |
| 20260505232556 | 73 | 199 | 5.2 | 18.2 | 0.00 | 0.04 | 0.04 | 25 | 1012.7 |
| 20260505232055 | 73 | 193 | 7.0 | 18.2 | 0.00 | 0.04 | 0.04 | 24 | 1012.7 |
| 20260505231555 | 74 | 262 | 5.2 | 13.0 | 0.00 | 0.04 | 0.04 | 25 | 1012.5 |
| 20260505231055 | 74 | 255 | 5.2 | 13.0 | 0.00 | 0.04 | 0.04 | 25 | 1012.6 |
| 20260505230555 | 74 | 259 | 6.1 | 13.0 | 0.00 | 0.04 | 0.04 | 26 | 1012.7 |
| 20260505230100 | 74 | 233 | 1.7 | 10.4 | 0.00 | 0.04 | 0.04 | 25 | 1012.6 |
| 20260505225555 | 73 | 248 | 0.0 | 10.4 | 0.00 | 0.04 | 0.04 | 26 | 1012.6 |
| 20260505225055 | 72 | 224 | 2.6 | 10.4 | 0.00 | 0.04 | 0.04 | 28 | 1012.7 |
| 20260505224554 | 72 | 190 | 0.0 | 13.9 | 0.00 | 0.04 | 0.04 | 27 | 1012.7 |
| 20260505224054 | 72 | 0 | 2.6 | 13.9 | 0.00 | 0.04 | 0.04 | 27 | 1013.0 |
| 20260505223555 | 72 | 0 | 0.9 | 12.2 | 0.00 | 0.04 | 0.04 | 27 | 1012.9 |
| 20260505223057 | 73 | 219 | 4.3 | 12.2 | 0.00 | 0.04 | 0.04 | 26 | 1012.9 |
| 20260505222554 | 74 | 0 | 0.9 | 11.3 | 0.00 | 0.04 | 0.04 | 25 | 1012.9 |
| 20260505222054 | 75 | 224 | 4.3 | 11.3 | 0.00 | 0.04 | 0.04 | 26 | 1013.0 |
| 20260505221604 | 74 | 217 | 1.7 | 7.8 | 0.00 | 0.04 | 0.04 | 26 | 1013.1 |
| 20260505221055 | 74 | 197 | 1.7 | 15.6 | 0.00 | 0.04 | 0.04 | 27 | 1013.2 |
| 20260505220556 | 75 | 203 | 5.2 | 15.6 | 0.00 | 0.04 | 0.04 | 25 | 1013.2 |
| 20260505220103 | 75 | 255 | 6.1 | 15.6 | 0.00 | 0.04 | 0.04 | 26 | 1013.1 |
| 20260505215556 | 74 | 266 | 3.5 | 15.6 | 0.00 | 0.04 | 0.04 | 25 | 1013.1 |
| 20260505215057 | 75 | 245 | 6.1 | 13.0 | 0.00 | 0.04 | 0.04 | 27 | 1013.2 |
| 20260505214601 | 75 | 237 | 2.6 | 12.2 | 0.00 | 0.04 | 0.04 | 25 | 1013.3 |
| 20260505214055 | 75 | 218 | 3.5 | 12.2 | 0.00 | 0.04 | 0.04 | 24 | 1013.3 |
| 20260505213554 | 76 | 221 | 3.5 | 12.2 | 0.00 | 0.04 | 0.04 | 25 | 1013.3 |
| 20260505213057 | 75 | 0 | 1.7 | 12.2 | 0.00 | 0.04 | 0.04 | 27 | 1013.3 |
| 20260505212554 | 75 | 268 | 6.1 | 13.9 | 0.00 | 0.04 | 0.04 | 26 | 1013.5 |
| 20260505212056 | 75 | 260 | 7.0 | 13.9 | 0.00 | 0.04 | 0.04 | 26 | 1013.6 |
| 20260505211602 | 75 | 257 | 4.3 | 16.5 | 0.00 | 0.04 | 0.04 | 26 | 1013.6 |
| 20260505211056 | 74 | 0 | 5.2 | 16.5 | 0.00 | 0.04 | 0.04 | 27 | 1013.5 |
| 20260505210555 | 74 | 241 | 7.8 | 17.4 | 0.00 | 0.04 | 0.04 | 27 | 1013.8 |
| 20260505210056 | 74 | 258 | 7.8 | 17.4 | 0.00 | 0.04 | 0.04 | 25 | 1013.8 |
| 20260505205554 | 74 | 231 | 1.7 | 11.3 | 0.00 | 0.04 | 0.04 | 26 | 1013.9 |
| 20260505205056 | 74 | 241 | 2.6 | 11.3 | 0.00 | 0.04 | 0.04 | 27 | 1013.8 |
| 20260505204606 | 74 | 197 | 2.6 | 12.2 | 0.00 | 0.04 | 0.04 | 27 | 1013.8 |
| 20260505204056 | 74 | 0 | 1.7 | 12.2 | 0.00 | 0.04 | 0.04 | 27 | 1013.8 |
| 20260505203558 | 74 | 229 | 0.9 | 9.6 | 0.00 | 0.04 | 0.04 | 29 | 1013.8 |
| 20260505203107 | 74 | 203 | 1.7 | 13.9 | 0.00 | 0.04 | 0.04 | 29 | 1014.0 |
| 20260505202555 | 74 | 223 | 3.5 | 13.9 | 0.00 | 0.04 | 0.04 | 29 | 1013.8 |
| 20260505202054 | 75 | 0 | 2.6 | 12.2 | 0.00 | 0.04 | 0.04 | 30 | 1013.9 |
| 20260505201557 | 75 | 0 | 1.7 | 7.8 | 0.00 | 0.04 | 0.04 | 30 | 1013.9 |
| 20260505201055 | 75 | 0 | 1.7 | 7.8 | 0.00 | 0.04 | 0.04 | 30 | 1013.9 |
| 20260505200558 | 74 | 0 | 0.0 | 9.6 | 0.00 | 0.04 | 0.04 | 31 | 1013.9 |
| 20260505200058 | 74 | 0 | 0.0 | 9.6 | 0.00 | 0.04 | 0.04 | 32 | 1014.1 |
| 20260505195554 | 73 | 224 | 2.6 | 7.8 | 0.00 | 0.04 | 0.04 | 34 | 1014.2 |
| 20260505195054 | 72 | 0 | 0.0 | 8.7 | 0.00 | 0.04 | 0.04 | 37 | 1014.1 |
| 20260505194602 | 72 | 0 | 0.0 | 13.9 | 0.00 | 0.04 | 0.04 | 34 | 1014.3 |
| 20260505194054 | 71 | 206 | 1.7 | 14.8 | 0.00 | 0.04 | 0.04 | 38 | 1014.3 |
| 20260505193553 | 70 | 208 | 2.6 | 19.1 | 0.00 | 0.04 | 0.04 | 37 | 1014.3 |
| 20260505193056 | 71 | 0 | 3.5 | 19.1 | 0.00 | 0.04 | 0.04 | 39 | 1014.5 |
| 20260505192556 | 72 | 0 | 0.9 | 6.1 | 0.00 | 0.04 | 0.04 | 37 | 1014.5 |
| 20260505192055 | 72 | 257 | 0.0 | 8.7 | 0.00 | 0.04 | 0.04 | 38 | 1014.6 |
| 20260505191554 | 72 | 265 | 2.6 | 8.7 | 0.00 | 0.04 | 0.04 | 39 | 1014.8 |
| 20260505191056 | 71 | 0 | 0.9 | 9.6 | 0.00 | 0.04 | 0.04 | 39 | 1015.1 |
| 20260505190555 | 71 | 0 | 0.0 | 13.0 | 0.00 | 0.04 | 0.04 | 40 | 1015.1 |
| 20260505190055 | 71 | 231 | 2.6 | 13.0 | 0.00 | 0.04 | 0.04 | 40 | 1015.2 |
| 20260505185555 | 71 | 248 | 1.7 | 11.3 | 0.00 | 0.04 | 0.04 | 41 | 1015.2 |
| 20260505185055 | 70 | 264 | 3.5 | 11.3 | 0.00 | 0.04 | 0.04 | 40 | 1015.4 |
| 20260505184557 | 70 | 263 | 3.5 | 10.4 | 0.00 | 0.04 | 0.04 | 43 | 1015.2 |
| 20260505184055 | 69 | 214 | 0.9 | 11.3 | 0.00 | 0.04 | 0.04 | 44 | 1015.2 |
| 20260505183557 | 69 | 249 | 0.0 | 14.8 | 0.00 | 0.04 | 0.04 | 47 | 1015.3 |
| 20260505183055 | 69 | 0 | 4.3 | 14.8 | 0.00 | 0.04 | 0.04 | 44 | 1015.5 |
| 20260505182555 | 70 | 0 | 0.9 | 7.0 | 0.00 | 0.04 | 0.04 | 45 | 1015.3 |
| 20260505182054 | 70 | 153 | 0.9 | 7.8 | 0.00 | 0.04 | 0.04 | 44 | 1015.4 |
| 20260505181553 | 70 | 285 | 2.6 | 7.8 | 0.00 | 0.04 | 0.04 | 46 | 1015.4 |
| 20260505181054 | 70 | 0 | 0.9 | 9.6 | 0.00 | 0.04 | 0.04 | 44 | 1015.5 |
| 20260505180554 | 69 | 0 | 0.9 | 9.6 | 0.00 | 0.04 | 0.04 | 51 | 1015.5 |
| 20260505180057 | 68 | 292 | 0.0 | 12.2 | 0.00 | 0.04 | 0.04 | 48 | 1015.5 |
| 20260505175556 | 67 | 0 | 2.6 | 12.2 | 0.00 | 0.04 | 0.04 | 50 | 1015.6 |
| 20260505175056 | 67 | 264 | 0.9 | 7.0 | 0.00 | 0.04 | 0.04 | 50 | 1015.6 |
| 20260505174603 | 67 | 238 | 1.7 | 7.8 | 0.00 | 0.04 | 0.04 | 51 | 1015.6 |
| 20260505174055 | 67 | 0 | 0.9 | 7.8 | 0.00 | 0.04 | 0.04 | 53 | 1015.7 |
| 20260505173554 | 67 | 240 | 0.0 | 7.0 | 0.00 | 0.04 | 0.04 | 52 | 1015.7 |
| 20260505173053 | 67 | 0 | 0.0 | 7.0 | 0.00 | 0.04 | 0.04 | 53 | 1015.7 |
| 20260505172555 | 67 | 0 | 0.9 | 11.3 | 0.00 | 0.04 | 0.04 | 53 | 1015.7 |
| 20260505172055 | 67 | 0 | 0.9 | 11.3 | 0.00 | 0.04 | 0.04 | 53 | 1015.6 |
| 20260505171553 | 67 | 0 | 0.0 | 4.3 | 0.00 | 0.04 | 0.04 | 56 | 1015.5 |
| 20260505171055 | 66 | 0 | 0.0 | 6.1 | 0.00 | 0.04 | 0.04 | 58 | 1015.7 |
| 20260505170554 | 65 | 0 | 0.0 | 6.1 | 0.00 | 0.04 | 0.04 | 59 | 1015.8 |
| 20260505170053 | 65 | 0 | 0.0 | 8.7 | 0.00 | 0.04 | 0.04 | 59 | 1015.9 |
| 20260505165553 | 65 | 0 | 0.0 | 8.7 | 0.00 | 0.04 | 0.04 | 60 | 1015.8 |
| 20260505165055 | 64 | 0 | 0.0 | 4.3 | 0.00 | 0.04 | 0.04 | 62 | 1015.9 |
| 20260505164600 | 63 | 0 | 0.0 | 8.7 | 0.00 | 0.04 | 0.04 | 65 | 1015.8 |
| 20260505164055 | 63 | 0 | 1.7 | 8.7 | 0.00 | 0.04 | 0.04 | 65 | 1015.9 |
| 20260505163554 | 62 | 0 | 0.0 | 12.2 | 0.00 | 0.04 | 0.04 | 67 | 1015.9 |
| 20260505163057 | 61 | 0 | 0.9 | 12.2 | 0.00 | 0.04 | 0.04 | 70 | 1015.9 |
| 20260505162554 | 60 | 0 | 6.1 | 12.2 | 0.00 | 0.04 | 0.04 | 71 | 1015.9 |
| 20260505162056 | 59 | 157 | 3.5 | 11.3 | 0.00 | 0.04 | 0.04 | 73 | 1015.9 |
| 20260505161558 | 59 | 158 | 7.0 | 11.3 | 0.00 | 0.04 | 0.04 | 74 | 1016.0 |
| 20260505161056 | 58 | 172 | 1.7 | 7.8 | 0.00 | 0.04 | 0.04 | 77 | 1016.0 |
| 20260505160558 | 58 | 0 | 1.7 | 7.8 | 0.00 | 0.04 | 0.04 | 82 | 1016.0 |
| 20260505153110 | 55 | 0 | 0.0 | 0.0 | 0.00 | 0.04 | 0.04 | 89 | 1016.0 |
| 20260505152556 | 54 | 0 | 0.0 | 0.0 | 0.00 | 0.04 | 0.04 | 88 | 1016.0 |
| 20260505152055 | 54 | 0 | 0.0 | 0.0 | 0.00 | 0.04 | 0.04 | 88 | 1015.9 |
| 20260505151558 | 54 | 0 | 0.0 | 0.0 | 0.00 | 0.04 | 0.04 | 89 | 1015.9 |
| 20260505151056 | 54 | 0 | 0.0 | 0.0 | 0.00 | 0.04 | 0.04 | 89 | 1015.9 |
| 20260505150554 | 54 | 0 | 0.0 | 0.0 | 0.00 | 0.04 | 0.04 | 88 | 1015.9 |
| 20260505140555 | 55 | 0 | 0.0 | 0.0 | 0.00 | 0.04 | 0.04 | 89 | 1015.3 |
| 20260505124601 | 54 | 0 | 0.0 | 0.0 | 0.02 | 0.04 | 0.04 | 89 | 1014.9 |
| 20260505124056 | 54 | 0 | 0.0 | 0.0 | 0.01 | 0.03 | 0.03 | 89 | 1015.0 |
| 20260505123555 | 54 | 0 | 0.0 | 0.0 | 0.01 | 0.03 | 0.03 | 89 | 1014.7 |
| 20260505123059 | 54 | 0 | 0.0 | 0.0 | 0.01 | 0.03 | 0.03 | 88 | 1014.5 |
| 20260505122556 | 54 | 0 | 0.0 | 0.0 | 0.01 | 0.03 | 0.03 | 88 | 1014.3 |
| 20260505122054 | 54 | 0 | 0.0 | 0.0 | 0.01 | 0.03 | 0.03 | 88 | 1014.4 |
| 20260505121557 | 54 | 0 | 0.0 | 0.0 | 0.01 | 0.03 | 0.03 | 88 | 1014.3 |
| 20260505121055 | 54 | 0 | 0.0 | 0.0 | 0.01 | 0.03 | 0.03 | 88 | 1014.5 |
| 20260505120554 | 54 | 0 | 0.0 | 0.0 | 0.01 | 0.03 | 0.03 | 88 | 1014.6 |
| 20260505120103 | 54 | 0 | 0.0 | 0.0 | 0.01 | 0.03 | 0.03 | 87 | 1014.8 |
| 20260505115554 | 54 | 0 | 0.0 | 0.0 | 0.02 | 0.03 | 0.03 | 87 | 1014.9 |
| 20260505115055 | 54 | 0 | 0.0 | 0.0 | 0.02 | 0.03 | 0.03 | 87 | 1015.1 |
| 20260505114555 | 54 | 0 | 0.0 | 0.0 | 0.02 | 0.02 | 0.02 | 87 | 1015.1 |
| 20260505114056 | 54 | 0 | 0.0 | 0.0 | 0.02 | 0.02 | 0.02 | 87 | 1015.1 |
| 20260505113553 | 54 | 0 | 0.0 | 0.0 | 0.02 | 0.02 | 0.02 | 86 | 1015.2 |
| 20260505113113 | 54 | 0 | 0.0 | 0.0 | 0.02 | 0.02 | 0.02 | 86 | 1015.0 |
| 20260505112558 | 54 | 0 | 0.0 | 0.0 | 0.02 | 0.02 | 0.02 | 85 | 1015.0 |
| 20260505112053 | 54 | 0 | 0.0 | 0.0 | 0.02 | 0.02 | 0.02 | 85 | 1014.9 |
| 20260505111554 | 54 | 0 | 0.0 | 0.0 | 0.02 | 0.02 | 0.02 | 85 | 1015.1 |
| 20260505111055 | 54 | 0 | 0.0 | 0.0 | 0.02 | 0.02 | 0.02 | 84 | 1015.3 |
| 20260505110555 | 54 | 0 | 0.0 | 0.0 | 0.02 | 0.02 | 0.02 | 84 | 1015.5 |
| 20260505102053 | 55 | 0 | 0.0 | 6.1 | 0.00 | 0.00 | 0.00 | 77 | 1016.4 |
| 20260505101556 | 55 | 299 | 0.0 | 9.6 | 0.00 | 0.00 | 0.00 | 76 | 1016.4 |
| 20260505101053 | 56 | 288 | 3.5 | 9.6 | 0.00 | 0.00 | 0.00 | 75 | 1016.6 |
| 20260505100553 | 56 | 319 | 5.2 | 9.6 | 0.00 | 0.00 | 0.00 | 74 | 1016.6 |
| 20260505100055 | 56 | 302 | 3.5 | 7.8 | 0.00 | 0.00 | 0.00 | 72 | 1016.6 |
| 20260505095553 | 56 | 0 | 0.9 | 9.6 | 0.00 | 0.00 | 0.00 | 72 | 1016.6 |
| 20260505095053 | 56 | 303 | 3.5 | 11.3 | 0.00 | 0.00 | 0.00 | 72 | 1016.8 |
| 20260505094555 | 56 | 281 | 6.1 | 11.3 | 0.00 | 0.00 | 0.00 | 73 | 1016.8 |
| 20260505094054 | 56 | 227 | 6.1 | 14.8 | 0.00 | 0.00 | 0.00 | 73 | 1016.8 |
| 20260505093554 | 57 | 326 | 7.8 | 14.8 | 0.00 | 0.00 | 0.00 | 73 | 1016.9 |
| 20260505093102 | 57 | 257 | 7.0 | 11.3 | 0.00 | 0.00 | 0.00 | 73 | 1017.0 |
| 20260505092554 | 57 | 240 | 7.0 | 11.3 | 0.00 | 0.00 | 0.00 | 72 | 1017.1 |
| 20260505092055 | 57 | 234 | 5.2 | 11.3 | 0.00 | 0.00 | 0.00 | 71 | 1017.0 |
| 20260505091553 | 58 | 231 | 7.0 | 10.4 | 0.00 | 0.00 | 0.00 | 71 | 1017.0 |
| 20260505091053 | 58 | 233 | 5.2 | 9.6 | 0.00 | 0.00 | 0.00 | 70 | 1017.1 |
| 20260505090552 | 58 | 272 | 5.2 | 10.4 | 0.00 | 0.00 | 0.00 | 70 | 1017.1 |
| 20260505090053 | 58 | 326 | 6.1 | 10.4 | 0.00 | 0.00 | 0.00 | 69 | 1017.0 |
| 20260505085552 | 58 | 326 | 5.2 | 9.6 | 0.00 | 0.00 | 0.00 | 69 | 1017.1 |
| 20260505085057 | 58 | 318 | 5.2 | 9.6 | 0.00 | 0.00 | 0.00 | 69 | 1017.2 |
| 20260505084555 | 58 | 346 | 5.2 | 11.3 | 0.00 | 0.00 | 0.00 | 68 | 1017.5 |
| 20260505084054 | 58 | 321 | 4.3 | 11.3 | 0.00 | 0.00 | 0.00 | 68 | 1017.5 |
| 20260505083553 | 58 | 304 | 6.1 | 11.3 | 0.00 | 0.00 | 0.00 | 67 | 1017.5 |
| 20260505083055 | 58 | 318 | 6.1 | 8.7 | 0.00 | 0.00 | 0.00 | 67 | 1017.3 |
| 20260505082553 | 58 | 304 | 5.2 | 8.7 | 0.00 | 0.00 | 0.00 | 66 | 1017.4 |
| 20260505082053 | 58 | 319 | 2.6 | 7.0 | 0.00 | 0.00 | 0.00 | 66 | 1017.3 |
| 20260505081558 | 59 | 311 | 3.5 | 7.8 | 0.00 | 0.00 | 0.00 | 66 | 1017.3 |
| 20260505081054 | 59 | 302 | 3.5 | 8.7 | 0.00 | 0.00 | 0.00 | 65 | 1017.3 |
| 20260505080554 | 59 | 339 | 4.3 | 8.7 | 0.00 | 0.00 | 0.00 | 65 | 1017.5 |
| 20260505080108 | 59 | 0 | 4.3 | 8.7 | 0.00 | 0.00 | 0.00 | 64 | 1017.7 |
| 20260505075553 | 59 | 311 | 4.3 | 8.7 | 0.00 | 0.00 | 0.00 | 64 | 1017.7 |
| 20260505075051 | 59 | 265 | 3.5 | 8.7 | 0.00 | 0.00 | 0.00 | 64 | 1017.7 |
| 20260505074554 | 59 | 0 | 3.5 | 11.3 | 0.00 | 0.00 | 0.00 | 63 | 1017.6 |
| 20260505074053 | 59 | 243 | 4.3 | 11.3 | 0.00 | 0.00 | 0.00 | 63 | 1017.6 |
| 20260505073554 | 59 | 229 | 5.2 | 8.7 | 0.00 | 0.00 | 0.00 | 63 | 1017.8 |
| 20260505073101 | 59 | 212 | 3.5 | 8.7 | 0.00 | 0.00 | 0.00 | 63 | 1017.7 |
| 20260505072553 | 59 | 328 | 1.7 | 7.8 | 0.00 | 0.00 | 0.00 | 63 | 1017.7 |
| 20260505072053 | 59 | 349 | 3.5 | 7.8 | 0.00 | 0.00 | 0.00 | 62 | 1017.9 |
| 20260505071556 | 60 | 300 | 5.2 | 7.8 | 0.00 | 0.00 | 0.00 | 62 | 1018.0 |
| 20260505071053 | 60 | 281 | 3.5 | 7.0 | 0.00 | 0.00 | 0.00 | 62 | 1017.9 |
| 20260505070556 | 60 | 306 | 2.6 | 6.1 | 0.00 | 0.00 | 0.00 | 61 | 1017.9 |
| 20260505070053 | 60 | 0 | 2.6 | 8.7 | 0.00 | 0.00 | 0.00 | 61 | 1017.7 |
| 20260505065552 | 60 | 290 | 2.6 | 9.6 | 0.00 | 0.00 | 0.00 | 60 | 1017.7 |
| 20260505065052 | 60 | 281 | 3.5 | 9.6 | 0.00 | 0.00 | 0.00 | 59 | 1017.7 |
| 20260505064559 | 60 | 307 | 2.6 | 11.3 | 0.00 | 0.00 | 0.00 | 59 | 1017.8 |
| 20260505064051 | 60 | 297 | 5.2 | 11.3 | 0.00 | 0.00 | 0.00 | 58 | 1017.7 |
| 20260505063551 | 61 | 274 | 6.1 | 11.3 | 0.00 | 0.00 | 0.00 | 57 | 1017.7 |
| 20260505063102 | 61 | 276 | 6.1 | 10.4 | 0.00 | 0.00 | 0.00 | 56 | 1018.0 |
| 20260505062555 | 61 | 300 | 5.2 | 10.4 | 0.00 | 0.00 | 0.00 | 52 | 1017.7 |
| 20260505062054 | 61 | 281 | 4.3 | 8.7 | 0.00 | 0.00 | 0.00 | 52 | 1017.9 |
| 20260505061557 | 61 | 0 | 0.0 | 6.1 | 0.00 | 0.00 | 0.00 | 51 | 1017.9 |
| 20260505061057 | 61 | 0 | 0.0 | 6.1 | 0.00 | 0.00 | 0.00 | 51 | 1017.7 |
| 20260505060553 | 61 | 320 | 2.6 | 7.8 | 0.00 | 0.00 | 0.00 | 50 | 1017.5 |
| 20260505060058 | 61 | 323 | 0.9 | 7.8 | 0.00 | 0.00 | 0.00 | 49 | 1017.5 |
| 20260505055556 | 61 | 0 | 2.6 | 7.8 | 0.00 | 0.00 | 0.00 | 50 | 1017.6 |
| 20260505055058 | 61 | 359 | 0.0 | 10.4 | 0.00 | 0.00 | 0.00 | 48 | 1017.4 |
| 20260505054557 | 61 | 0 | 0.9 | 10.4 | 0.00 | 0.00 | 0.00 | 47 | 1017.5 |
| 20260505054055 | 61 | 297 | 1.7 | 13.0 | 0.00 | 0.00 | 0.00 | 47 | 1017.6 |
| 20260505053554 | 61 | 359 | 2.6 | 13.0 | 0.00 | 0.00 | 0.00 | 47 | 1017.7 |
| 20260505053113 | 61 | 266 | 0.0 | 5.2 | 0.00 | 0.00 | 0.00 | 47 | 1017.9 |
| 20260505052552 | 61 | 0 | 0.0 | 6.1 | 0.00 | 0.00 | 0.00 | 45 | 1017.8 |
| 20260505052052 | 61 | 0 | 0.0 | 6.1 | 0.00 | 0.00 | 0.00 | 43 | 1017.9 |
| 20260505051559 | 61 | 0 | 1.7 | 8.7 | 0.00 | 0.00 | 0.00 | 44 | 1017.7 |
| 20260505051052 | 60 | 325 | 2.6 | 8.7 | 0.00 | 0.00 | 0.00 | 44 | 1017.6 |
| 20260505050553 | 59 | 338 | 3.5 | 8.7 | 0.00 | 0.00 | 0.00 | 47 | 1017.7 |
| 20260505050110 | 59 | 299 | 0.9 | 8.7 | 0.00 | 0.00 | 0.00 | 47 | 1017.7 |
| 20260505041553 | 62 | 0 | 3.5 | 7.0 | 0.00 | 0.00 | 0.00 | 38 | 1017.9 |
| 20260505041055 | 62 | 0 | 0.0 | 0.0 | 0.00 | 0.00 | 0.00 | 42 | 1018.2 |
| 20260505040556 | 62 | 0 | 0.0 | 0.0 | 0.00 | 0.00 | 0.00 | 38 | 1018.1 |
| 20260505040100 | 62 | 0 | 0.0 | 0.0 | 0.00 | 0.00 | 0.00 | 39 | 1017.9 |
| 20260505035555 | 62 | 0 | 0.0 | 4.3 | 0.00 | 0.00 | 0.00 | 42 | 1017.9 |
| 20260505035051 | 62 | 0 | 0.0 | 6.1 | 0.00 | 0.00 | 0.00 | 41 | 1017.8 |
| 20260505034618 | 62 | 295 | 2.6 | 6.1 | 0.00 | 0.00 | 0.00 | 39 | 1017.7 |
| 20260505034057 | 62 | 302 | 0.0 | 3.5 | 0.00 | 0.00 | 0.00 | 40 | 1017.6 |
| 20260505033555 | 63 | 0 | 0.0 | 3.5 | 0.00 | 0.00 | 0.00 | 40 | 1017.7 |
| 20260505033057 | 63 | 0 | 0.0 | 3.5 | 0.00 | 0.00 | 0.00 | 40 | 1017.6 |
| 20260505032555 | 63 | 0 | 0.0 | 3.5 | 0.00 | 0.00 | 0.00 | 40 | 1017.6 |
| 20260505032053 | 63 | 0 | 0.0 | 6.1 | 0.00 | 0.00 | 0.00 | 39 | 1017.5 |
| 20260505031600 | 63 | 0 | 1.7 | 7.0 | 0.00 | 0.00 | 0.00 | 39 | 1017.3 |
| 20260505031055 | 63 | 0 | 2.6 | 7.0 | 0.00 | 0.00 | 0.00 | 40 | 1017.3 |
| 20260505030557 | 63 | 0 | 0.9 | 7.0 | 0.00 | 0.00 | 0.00 | 39 | 1017.1 |
| 20260505025552 | 63 | 6 | 1.7 | 7.0 | 0.00 | 0.00 | 0.00 | 41 | 1016.7 |
| 20260505025053 | 63 | 360 | 1.7 | 13.0 | 0.00 | 0.00 | 0.00 | 40 | 1016.8 |
| 20260505024558 | 63 | 0 | 3.5 | 13.0 | 0.00 | 0.00 | 0.00 | 40 | 1016.8 |
| 20260505024053 | 62 | 359 | 4.3 | 7.8 | 0.00 | 0.00 | 0.00 | 41 | 1016.6 |
| 20260505023555 | 62 | 349 | 4.3 | 7.8 | 0.00 | 0.00 | 0.00 | 42 | 1016.5 |
| 20260505023100 | 62 | 357 | 3.5 | 6.1 | 0.00 | 0.00 | 0.00 | 42 | 1016.5 |
| 20260505022553 | 62 | 359 | 2.6 | 7.0 | 0.00 | 0.00 | 0.00 | 42 | 1016.5 |
| 20260505022051 | 63 | 351 | 4.3 | 7.8 | 0.00 | 0.00 | 0.00 | 41 | 1016.5 |
| 20260505021556 | 63 | 349 | 5.2 | 7.8 | 0.00 | 0.00 | 0.00 | 40 | 1016.6 |
| 20260505021053 | 64 | 333 | 2.6 | 7.0 | 0.00 | 0.00 | 0.00 | 39 | 1016.7 |
| 20260505020553 | 64 | 0 | 2.6 | 7.8 | 0.00 | 0.00 | 0.00 | 38 | 1016.6 |